Location: Unspecified
(0.0000°N, 0.0000°E)
Time: 01:03:18
(UTC+00:00)

Envisat - Visible Passes

Search period start: 19 November 2019 00:00
Search period end: 29 November 2019 00:00
Orbit: 764 x 766 km, 98.1° (Epoch: 18 November)

Date Brightness Start Highest point End Pass type
(mag) Time Alt. Az. Time Alt. Az. Time Alt. Az.
19 Nov 3.7 18:44:46 10° S 18:49:45 56° WSW 18:54:42 10° NNW visible
20 Nov 3.2 18:08:09 10° SSE 18:13:04 50° ENE 18:17:57 10° N visible
21 Nov 5.2 19:10:56 10° SSW 19:15:09 27° WSW 19:19:22 10° NW visible
22 Nov 3.2 18:33:26 10° S 18:38:29 77° WSW 18:43:33 10° NNW visible
23 Nov 6.1 19:38:24 10° SW 19:40:33 13° WSW 19:42:42 10° WNW visible
24 Nov 4.6 18:59:17 10° SSW 19:03:55 36° WSW 19:08:32 10° NW visible
25 Nov 2.9 18:22:10 10° SSE 18:27:15 78° ENE 18:32:18 10° N visible
26 Nov 6.7 05:18:27 10° E 05:19:31 11° ESE 05:20:34 10° ESE visible
26 Nov 5.8 19:26:01 10° SW 19:29:20 18° WSW 19:32:38 10° WNW visible
27 Nov 4.0 18:47:46 10° S 18:52:41 50° WSW 18:57:33 10° NNW visible
28 Nov 3.1 18:11:02 10° SSE 18:16:00 56° ENE 18:20:58 10° N visible
